TimeIST,TemperatureF,Dew PointF,Humidity,Sea Level PressureIn,VisibilityMPH,Wind Direction,Wind SpeedMPH,Gust SpeedMPH,PrecipitationIn,Events,Conditions,WindDirDegrees,DateUTC
12:10 AM,80.6,75.2,84,29.89,3.7,WSW,6.9,-,N/A,,Scattered Clouds,240,2012-10-15 18:40:00
12:40 AM,80.6,75.2,84,29.89,3.7,WSW,5.8,-,N/A,,Scattered Clouds,240,2012-10-15 19:10:00
1:10 AM,80.6,75.2,84,29.89,3.7,West,6.9,-,N/A,,Partly Cloudy,280,2012-10-15 19:40:00
1:40 AM,80.6,75.2,84,29.89,3.7,NW,6.9,-,N/A,,Scattered Clouds,310,2012-10-15 20:10:00
2:10 AM,77.0,73.4,89,29.89,2.5,Variable,3.5,-,N/A,Rain-Thunderstorm,Light Thunderstorms and Rain,0,2012-10-15 20:40:00
2:30 AM,77,73,85,29.90,1,Calm,Calm,,,Rain-Thunderstorm,Thunderstorms and Rain,,2012-10-15 21:00:00
2:40 AM,75.2,71.6,89,29.86,2.5,West,5.8,-,N/A,Rain-Thunderstorm,Light Thunderstorms and Rain,270,2012-10-15 21:10:00
3:10 AM,77.0,73.4,89,29.86,3.1,SW,3.5,-,N/A,,Light Drizzle,220,2012-10-15 21:40:00
3:40 AM,77.0,73.4,89,29.86,3.1,Calm,Calm,-,N/A,,Haze,0,2012-10-15 22:10:00
4:10 AM,77.0,73.4,89,29.86,3.1,Calm,Calm,-,N/A,,Haze,0,2012-10-15 22:40:00
4:40 AM,77.0,73.4,89,29.86,3.1,NW,3.5,-,N/A,,Haze,320,2012-10-15 23:10:00
5:10 AM,77.0,73.4,89,29.86,3.1,Calm,Calm,-,N/A,,Haze,0,2012-10-15 23:40:00
5:30 AM,77,74,87,29.90,2,Calm,Calm,,,,Partly Cloudy,,2012-10-16 00:00:00
5:40 AM,77.0,73.4,89,29.89,2.5,Calm,Calm,-,N/A,,Haze,0,2012-10-16 00:10:00
6:10 AM,77.0,73.4,89,29.89,2.5,Calm,Calm,-,N/A,,Haze,0,2012-10-16 00:40:00
6:40 AM,77.0,73.4,89,29.89,2.5,NW,3.5,-,N/A,,Haze,320,2012-10-16 01:10:00
7:10 AM,78.8,75.2,89,29.92,2.5,NW,3.5,-,N/A,,Haze,310,2012-10-16 01:40:00
7:40 AM,80.6,77.0,89,29.92,2.5,NW,3.5,-,N/A,,Haze,320,2012-10-16 02:10:00
8:10 AM,80.6,77.0,89,29.92,2.5,NNW,3.5,-,N/A,,Haze,340,2012-10-16 02:40:00
8:30 AM,83,77,78,29.96,6,Calm,Calm,,,,Scattered Clouds,,2012-10-16 03:00:00
8:40 AM,82.4,77.0,84,29.95,2.5,NW,4.6,-,N/A,,Haze,320,2012-10-16 03:10:00
9:10 AM,84.2,77.0,79,29.95,2.5,NW,3.5,-,N/A,,Haze,310,2012-10-16 03:40:00
9:40 AM,87.8,77.0,70,29.95,3.7,NNW,3.5,-,N/A,,Scattered Clouds,340,2012-10-16 04:10:00
10:10 AM,87.8,75.2,66,29.95,3.7,NNW,5.8,-,N/A,,Mostly Cloudy,340,2012-10-16 04:40:00
10:40 AM,87.8,75.2,66,29.92,3.7,NNE,3.5,-,N/A,,Mostly Cloudy,20,2012-10-16 05:10:00
11:10 AM,89.6,75.2,62,29.92,3.7,NNW,5.8,-,N/A,,Mostly Cloudy,330,2012-10-16 05:40:00
11:30 AM,90,72,47,29.94,6,ESE,3.5,,,,Partly Cloudy,110,2012-10-16 06:00:00
11:40 AM,89.6,73.4,59,29.92,3.7,NNW,5.8,-,N/A,,Mostly Cloudy,340,2012-10-16 06:10:00
12:10 PM,89.6,73.4,59,29.89,3.7,North,6.9,-,N/A,,Mostly Cloudy,350,2012-10-16 06:40:00
12:40 PM,89.6,75.2,62,29.89,3.7,NNE,6.9,-,N/A,,Light Drizzle,30,2012-10-16 07:10:00
1:40 PM,84.2,77.0,79,29.86,1.9,East,9.2,-,N/A,Rain,Light Rain,90,2012-10-16 08:10:00
2:10 PM,87.8,77.0,70,29.83,3.1,NE,9.2,-,N/A,,Haze,50,2012-10-16 08:40:00
2:30 PM,88,77,63,29.86,6,NE,5.8,,,,Partly Cloudy,50,2012-10-16 09:00:00
2:40 PM,87.8,75.2,66,29.83,3.1,NE,9.2,-,N/A,,Haze,40,2012-10-16 09:10:00
3:10 PM,86.0,75.2,70,29.83,3.1,NE,12.7,-,N/A,,Light Drizzle,50,2012-10-16 09:40:00
3:40 PM,86.0,75.2,70,29.83,2.5,ENE,9.2,-,N/A,,Haze,60,2012-10-16 10:10:00
4:10 PM,86.0,75.2,70,29.83,2.5,ENE,11.5,-,N/A,,Haze,60,2012-10-16 10:40:00
4:40 PM,86.0,75.2,70,29.83,2.5,ENE,11.5,-,N/A,,Haze,60,2012-10-16 11:10:00
5:10 PM,84.2,73.4,70,29.83,2.5,NE,10.4,-,N/A,,Haze,50,2012-10-16 11:40:00
5:30 PM,85,72,56,29.87,6,NE,4.6,,,,Partly Cloudy,50,2012-10-16 12:00:00
5:40 PM,84.2,71.6,66,29.86,2.5,NE,9.2,-,N/A,,Haze,40,2012-10-16 12:10:00
6:40 PM,84.2,75.2,74,29.89,2.5,NNE,11.5,-,N/A,,Haze,20,2012-10-16 13:10:00
7:10 PM,80.6,73.4,79,29.89,2.5,NNE,6.9,-,N/A,,Haze,20,2012-10-16 13:40:00
7:40 PM,80.6,73.4,79,29.89,2.5,North,5.8,-,N/A,,Haze,10,2012-10-16 14:10:00
8:10 PM,80.6,73.4,79,29.92,2.5,NNE,4.6,-,N/A,,Haze,30,2012-10-16 14:40:00
8:40 PM,82.4,75.2,79,29.92,2.5,NNE,4.6,-,N/A,,Haze,20,2012-10-16 15:10:00
9:10 PM,82.4,75.2,79,29.92,2.5,NNE,4.6,-,N/A,,Haze,30,2012-10-16 15:40:00
9:40 PM,82.4,75.2,79,29.92,2.5,NNE,6.9,-,N/A,,Haze,20,2012-10-16 16:10:00
10:10 PM,82.4,75.2,79,29.92,2.5,NNE,6.9,-,N/A,,Haze,30,2012-10-16 16:40:00
10:40 PM,82.4,75.2,79,29.92,2.5,North,4.6,-,N/A,,Haze,10,2012-10-16 17:10:00
11:10 PM,82.4,75.2,79,29.92,2.5,Calm,Calm,-,N/A,,Haze,0,2012-10-16 17:40:00
11:30 PM,82,76,76,29.94,2,NE,2.3,,,,Scattered Clouds,50,2012-10-16 18:00:00
11:40 PM,80.6,75.2,84,29.92,2.5,Calm,Calm,-,N/A,,Haze,0,2012-10-16 18:10:00